This demonstration page uses our WeatherBlox Daily Observations layout. Learn more.

41.86663, -103.66717

Hourly Observations for December 2, 2019

Temp ( °F °C ) Dew Point ( °F °C ) Humidity (%) Winds ( mph kmh ) Pressure ( in mb ) Visibility ( mi km ) Precip ( " mm )
12:53 am 00:53 Clear 8 -13.3 6 -14.4 92 92 NW 5 7 30.24 1024 10 16.0934 0 0
1:53 am 01:53 Clear 8 -13.3 6 -14.4 92 92 NW 5 7 30.23 1024 10 16.0934 0 0
2:53 am 02:53 Clear 8 -13.3 4 -15.6 83 83 NNW 5 7 30.22 1023 10 16.0934 0 0
3:53 am 03:53 Clear 8 -13.3 6 -14.4 92 92 NNW 6 9 30.22 1023 10 16.0934 0 0
4:53 am 04:53 Clear 8 -13.3 5 -15 87 87 NW 3 6 30.22 1023 10 16.0934 0 0
5:53 am 05:53 Clear 8 -13.3 5 -15 87 87 NNW 8 13 30.23 1024 10 16.0934 0 0
6:53 am 06:53 Clear 11 -11.7 7 -13.9 84 84 NW 10 17 30.22 1023 10 16.0934 0 0
7:53 am 07:53 Sunny 16 -8.9 11 -11.7 80 80 NW 5 7 30.21 1023 10 16.0934 0 0
8:53 am 08:53 Sunny 24 -4.4 17 -8.3 75 75 NW 10 17 30.19 1023 10 16.0934 0 0
9:53 am 09:53 Sunny 32 0 21 -6.1 64 64 NW 7 11 30.18 1022 10 16.0934 0 0
10:53 am 10:53 Sunny 39 3.9 26 -3.3 60 60 W 15 24 30.12 1020 10 16.0934 0 0
11:53 am 11:53 Mostly Sunny 46 7.8 29 -1.7 51 51 NW 15 24 30.07 1018 10 16.0934 0 0
12:53 pm 12:53 Sunny 44 6.7 30 -1.1 58 58 WNW 15 24 30.09 1019 10 16.0934 0 0
1:53 pm 13:53 Sunny 44 6.7 30 -1.1 58 58 NW 16 26 30.08 1019 10 16.0934 0 0
3:53 pm 15:53 undefined 45 7.2 29 -1.7 54 54 WNW 13 20 30.08 1019 10 16.0934 0 0
4:53 pm 16:53 Clear 38 3.3 30 -1.1 73 73 NNW 8 13 30.11 1020 10 16.0934 0 0
5:53 pm 17:53 Clear 36 2.2 29 -1.7 76 76 NW 7 11 30.11 1020 10 16.0934 0 0
6:53 pm 18:53 Clear 37 2.8 29 -1.7 73 73 N 6 9 30.11 1020 10 16.0934 0 0
7:53 pm 19:53 Clear 37 2.8 30 -1.1 76 76 NW 7 11 30.06 1018 10 16.0934 0 0
8:53 pm 20:53 Clear 33 0.6 28 -2.2 82 82 NW 7 11 30.05 1018 10 16.0934 0 0
9:53 pm 21:53 Clear 35 1.7 29 -1.7 78 78 SW 5 7 30.02 1017 10 16.0934 0 0
10:53 pm 22:53 Clear 39 3.9 31 -0.6 73 73 W 12 19 29.99 1016 10 16.0934 0 0
11:53 pm 23:53 Clear 38 3.3 30 -1.1 73 73 WNW 10 17 29.96 1015 10 16.0934 0 0

Powered by AerisWeather